Content
SEND FEEDBACK

Daily
Averages
Monthly
Summary
United States of America

ST. LOUIS, MISSOURI


Home > North America > United States > Missouri
Elevation: 163 meters     Latitude: 38 45N     Longitude: 090 22W

WEATHER
 
SELECT A DAY
Number of Records: 196,446;   Date Range: 1/1/95 - 8/12/14
 
SHARE

PRINT THIS DATA

[ ← Previous Day ]
WEATHER ALMANAC - 18 APRIL, 2013
[ Next Day → ]
[ °F ]   °C
Weather ElementAverageHighLow
Temperature15.9 °C25 °C (1:54 am)5.6 °C (11:54 pm)
Dewpoint12.8 °C18.3 °C (5:54 am)-1.1 °C (11:54 pm)
Humidity82.6 %94 % (6:50 am)61 % (5:22 am)
Barometer1003.7 hPa1009.1 hPa (9:54 pm)1000 hPa (5:54 am)
Wind Speed18.3 km/h35.2 km/h (11:32 pm)
Wind Gust64.9 km/h (6:17 am)
Weather ElementAverage
Visibility9.8 km
Wind DirectionSSW (192.7 °)

Weather ElementTotal
Precipitation103.38 mm
Heating Degree Days3.1 (Base 18.3)
Growing Degree Days5.3 (Base 10)
Averaged from 48 records on 18 April, 2013
WEATHER CONDITIONS BREAKOUT
WIND DIRECTION BREAKOUT
WEATHER BY HOUR - 18 APRIL, 2013
[ °F ]   °C
Local TimeTemperatureDewpointHumidityBarometerVisibilityWind DirectionWind SpeedGust SpeedPrecipitationEventsConditions
1:54 AM25 °C17.8 °C64 %1002.4 hPa16.1 kmSouth (180°)27.8 km/h44.4 km/hClear
2:54 AM25 °C17.8 °C64 %1001.7 hPa16.1 kmSouth (180°)16.7 km/h31.5 km/hScattered Clouds
3:54 AM25 °C17.8 °C64 %1000.7 hPa16.1 kmSouth (190°)22.2 km/h42.6 km/hScattered Clouds
4:54 AM25 °C17.2 °C62 %1000.3 hPa16.1 kmSSW (200°)27.8 km/h50.1 km/hPartly Cloudy
5:22 AM25 °C17 °C61 %1000.7 hPa16.1 kmSouth (170°)31.5 km/h46.3 km/hThunderstormOvercast
5:37 AM24 °C18 °C69 %1000.7 hPa14.5 kmSouth (180°)22.2 km/h37 km/h0.25 mmRainLight Rain
5:54 AM23.9 °C18.3 °C71 %1000 hPa16.1 kmSouth (180°)22.2 km/h35.2 km/h0.25 mmRain-ThunderstormLight Rain
6:17 AM19 °C16 °C83 %1003.7 hPa6.4 kmWest (260°)29.6 km/h64.9 km/h1.02 mmRain-ThunderstormThunderstorms and Rain
6:23 AM18 °C16 °C88 %1003.7 hPa2.9 kmWest (260°)24.1 km/h44.4 km/h4.32 mmRain-ThunderstormHeavy Thunderstorms and Rain
6:50 AM17 °C16 °C94 %1003.7 hPa4.8 kmWSW (250°)14.8 km/h10.41 mmRain-ThunderstormLight Thunderstorms and Rain
6:54 AM17.2 °C16.1 °C93 %1003.4 hPa4.8 kmSW (230°)13 km/h10.67 mmRain-ThunderstormThunderstorms and Rain
6:56 AM18 °C16 °C88 %1004.1 hPa11.3 kmSW (220°)9.3 km/h0 mmRain-ThunderstormLight Thunderstorms and Rain
7:01 AM18 °C16 °C88 %1004.1 hPa4.8 kmSW (230°)14.8 km/h0.25 mmThunderstormOvercast
7:43 AM17 °C16 °C94 %1004.1 hPa4.8 kmCalm2.03 mmRainRain
7:54 AM17.2 °C16.1 °C93 %1002.7 hPa4.8 kmCalm2.79 mmRainRain
7:57 AM17 °C16 °C94 %1003.4 hPa9.7 kmCalm0 mmRainLight Rain
8:54 AM17.2 °C16.1 °C93 %1003.4 hPa6.4 kmSSE (160°)9.3 km/h2.03 mmRainRain
9:06 AM17 °C16 °C94 %1003.7 hPa6.4 kmSE (130°)7.4 km/h0.76 mmRain-ThunderstormRain
9:21 AM17 °C16 °C94 %1004.1 hPa4.8 kmSE (140°)9.3 km/h2.03 mmRainRain
9:24 AM17 °C16 °C94 %1003.7 hPa4 kmESE (120°)5.6 km/h2.79 mmRainHeavy Rain
9:54 AM17.8 °C16.7 °C93 %1002.7 hPa4.8 kmSE (130°)7.4 km/h4.57 mmRainRain
10:15 AM18 °C17 °C94 %1003.7 hPa2.9 kmSSE (160°)11.1 km/h3.3 mmRainHeavy Rain
10:27 AM18 °C17 °C94 %1003.4 hPa4.8 kmSSE (160°)5.6 km/h4.83 mmRainRain
10:54 AM17.8 °C16.1 °C90 %1002.7 hPa4.8 kmSE (130°)9.3 km/h8.13 mmRainHeavy Rain
11:05 AM17 °C16 °C94 %1003 hPa4 kmESE (120°)14.8 km/hRainRain
11:12 AM18 °C16 °C88 %1003.7 hPa2.4 kmSouth (170°)16.7 km/h3.05 mmRain-ThunderstormHeavy Rain
11:27 AM18 °C16 °C88 %1003.4 hPa4 kmSSE (160°)11.1 km/h25.9 km/h5.33 mmRainHeavy Rain
11:42 AM18 °C16 °C88 %1003 hPa4 kmSE (140°)18.5 km/h7.11 mmRain-ThunderstormThunderstorms and Rain
11:54 AM17.2 °C16.1 °C93 %1002.4 hPa4 kmSE (130°)13 km/h8.38 mmRain-ThunderstormThunderstorms and Rain
12:09 PM17 °C16 °C94 %1002 hPa4 kmSE (130°)18.5 km/h1.27 mmRainRain
12:11 PM17 °C16 °C94 %1002 hPa8 kmSE (130°)16.7 km/h1.27 mmRainRain
12:54 PM17.2 °C16.1 °C93 %1001 hPa14.5 kmSouth (170°)18.5 km/h33.3 km/h3.05 mmRainLight Rain
1:54 PM18.3 °C16.7 °C90 %1000.7 hPa9.7 kmSouth (180°)18.5 km/h1.52 mmRainLight Rain
2:20 PM16 °C14 °C88 %1002.4 hPa4.8 kmWest (260°)24.1 km/h59.2 km/h1.78 mmRainRain
2:51 PM14 °C12 °C88 %1004.1 hPa6.4 kmWest (260°)31.5 km/h50.1 km/h2.79 mmRainRain
2:54 PM13.3 °C11.7 °C90 %1003.7 hPa6.4 kmWest (260°)31.5 km/h50.1 km/h3.05 mmRainRain
3:54 PM10.6 °C8.3 °C86 %1004.1 hPa16.1 kmWSW (250°)25.9 km/h2.79 mmRainLight Rain
4:25 PM10 °C8 °C87 %1005.1 hPa16.1 kmWSW (250°)24.1 km/h37 km/h0.76 mmRainLight Rain
4:54 PM9.4 °C6.1 °C80 %1004.7 hPa16.1 kmWest (260°)25.9 km/h44.4 km/h0.76 mmOvercast
5:54 PM8.9 °C4.4 °C74 %1006.4 hPa16.1 kmWest (260°)22.2 km/h40.7 km/hOvercast
6:54 PM8.3 °C3.9 °C74 %1007.8 hPa16.1 kmWest (270°)20.4 km/h35.2 km/hOvercast
7:54 PM7.8 °C3.3 °C73 %1007.5 hPa16.1 kmWest (280°)20.4 km/h37 km/hOvercast
8:54 PM7.2 °C1.7 °C68 %1008.5 hPa16.1 kmWest (280°)25.9 km/h48.1 km/hOvercast
9:54 PM6.7 °C0 °C63 %1009.1 hPa16.1 kmWest (280°)33.3 km/h46.3 km/hOvercast
10:54 PM6.1 °C0 °C65 %1008.5 hPa16.1 kmWest (280°)18.5 km/h35.2 km/hOvercast
11:18 PM6 °C0 °C66 %1008.5 hPa16.1 kmWNW (290°)29.6 km/h53.8 km/hOvercast
11:32 PM6 °C-1 °C61 %1008.1 hPa16.1 kmWNW (290°)35.2 km/h48.1 km/hOvercast
11:54 PM5.6 °C-1.1 °C62 %1008.5 hPa16.1 kmWNW (290°)22.2 km/h35.2 km/hOvercast
Hourly data recorded from KSUS, located 0 kilometers away from St. Louis, Missouri







STORIES FROM OUR PARTNERS